Location: Hohe Wand Waldeggerhaus
(47.8500°N, 16.0440°E)
Time: 06:39:40
(UTC+02:00)

Envisat - Pass Details

Date: 28 May 2024
Orbit: 762 x 764 km, 98.3° (Epoch: 13 June)

Event Time Altitude Azimuth Distance (km) Brightness Sun altitude
Rises 03:42:40 0° 20° (NNE) 3,238 7.8 -10.9°
Reaches altitude 10° 03:45:07 10° 28° (NNE) 2,307 6.9 -10.6°
Maximum altitude 03:49:53 40° 97° (E) 1,123 4.2 -10.1°
Drops below altitude 10° 03:54:37 10° 167° (SSE) 2,291 5.1 -9.6°
Sets 03:57:03 0° 174° (S) 3,212 5.8 -9.3°
